Погода в Хитхадху

Мальдивы     0°39′31″N   73°06′52″E
темп.,
°C
ветер,
м/с
пор.,
м/с
влажн.,
%
обл.,
%
осадки,
мм/ч
давл.,
гПа
погр.,
м
19 мая, ср
ср1923:00+29зсз34693 0.1 1010978
02:00+29зсз23662 0.0 1009935
05:00+29зсз22670 0.0 1008847
08:00+29зсз23670 0.0 1011891
11:00+29зсз23673 0.0 1011956
14:00+29зсз336712 0.0 10081043
17:00+29зсз2367100 0.0 1008930
20:00+29зсз2368100 0.0 1010913
20 мая, чт
чт2023:00+29зсз346991 0.0 1011841
02:00+29зсз446966 0.0 1009915
05:00+29з456853 0.0 1009995
08:00+29з446846 0.0 1011928
11:00+29зсз446810 0.0 10111034
14:00+29зсз45693 0.0 10091009
17:00+29зсз457216 0.1 1009924
20:00+29зсз45693 0.1 10111020
21 мая, пт
пт2123:00+29зсз34719 0.1 1011894
02:00+29з4472100 0.1 1010825
05:00+29з447178 0.4 1010810
08:00+29з337097 0.0 1012875
11:00+29з3371100 0.1 1012851
14:00+29з3472100 0.0 1009883
17:00+29з3470100 0.1 1009977
20:00+29з336994 0.0 1011806
22 мая, сб
сб2223:00+29з4474100 0.6 1012654
02:00+29зюз557277 0.8 1010924
05:00+29зюз557150 1.1 10101048
08:00+29зюз447012 0.0 1011963
11:00+29зюз447010 0.1 1011893
14:00+29з45706 0.0 1009989
17:00+29з4570100 0.0 10091041
20:00+29з4571100 0.0 1011951
23 мая, вс
вс2323:00+29з457255 0.1 1011873
02:00+29з567484 0.7 1010938
05:00+29зюз557498 1.2 1010846
08:00+29зюз457498 0.1 1011882
11:00+29зюз457290 0.1 1011958
14:00+29зюз45727 0.0 1009913
17:00+29зюз557449 0.3 1009856
20:00+29зюз5573100 0.8 1012842